DW9721 Weather Reports


Display with metric or nautical units.
time (UTC)temp
F
wind
direction
speed
MPH
gust
MPH
rain 1hr
in
rain 24hr
in
rain mn
in
humidity
%
barometer
mb
20260505034516 48 203 1.0 4.0 0.16 0.17 0.17 89 1010.2
20260505033515 48 225 2.0 5.0 0.13 0.13 0.13 89 1010.4
20260505032516 49 225 2.0 4.0 0.12 0.12 0.12 88 1010.6
20260505031536 49 225 3.0 6.0 0.10 0.10 0.10 87 1009.7
20260505030516 49 248 4.0 9.0 0.07 0.07 0.07 84 1009.7
20260505025516 50 248 4.0 12.0 0.04 0.04 0.04 81 1009.4
20260505024515 50 248 2.0 5.0 0.01 0.01 0.01 76 1009.1
20260505023516 51 293 1.0 1.0 0.00 0.00 0.00 74 1008.9
20260505022515 51 293 2.0 3.0 0.00 0.00 0.00 73 1008.7
20260505021535 51 293 3.0 4.0 0.00 0.00 0.00 72 1007.9
20260505020516 52 315 3.0 6.0 0.00 0.00 0.00 72 1007.9
20260505015516 52 338 4.0 7.0 0.00 0.00 0.00 71 1008.0
20260505014516 53 315 3.0 6.0 0.00 0.00 0.00 66 1007.1
20260505013515 53 315 3.0 5.0 0.00 0.00 0.00 65 1006.8
20260505012516 54 315 6.0 9.0 0.00 0.00 0.00 62 1007.2
20260505011515 56 338 9.0 17.0 0.00 0.00 0.00 60 1007.1
20260505010516 57 338 12.0 19.0 0.00 0.00 0.00 57 1007.1
20260505005555 57 338 4.0 6.0 0.00 0.00 0.00 61 1006.7
20260505004535 57 315 3.0 5.0 0.00 0.00 0.00 60 1006.6
20260505003515 57 315 2.0 4.0 0.00 0.00 0.00 60 1006.5
20260505002516 57 0.0 2.0 0.00 0.00 0.00 59 1006.3
20260505001515 57 338 3.0 5.0 0.00 0.00 0.00 59 1005.9
20260505000515 57 338 3.0 5.0 0.00 0.00 0.00 60 1005.9
20260504235515 57 315 4.0 6.0 0.00 0.00 0.00 59 1006.0
20260504234515 58 338 6.0 9.0 0.00 0.00 0.00 56 1006.2
20260504233515 60 338 5.0 9.0 0.00 0.00 0.00 46 1006.3
20260504232516 60 293 3.0 5.0 0.00 0.00 0.00 50 1006.3
20260504231516 60 225 1.0 4.0 0.00 0.00 0.00 51 1006.3
20260504230516 61 225 2.0 7.0 0.00 0.00 0.00 47 1006.2
20260504225515 61 270 4.0 7.0 0.00 0.00 0.00 43 1006.4
20260504224516 61 270 5.0 7.0 0.00 0.00 0.00 43 1006.5
20260504223515 62 270 2.0 4.0 0.00 0.00 0.00 41 1006.2
20260504222516 63 23 1.0 3.0 0.00 0.00 0.00 41 1006.1
20260504221516 63 0 3.0 6.0 0.00 0.00 0.00 39 1006.1
20260504220515 62 45 5.0 10.0 0.00 0.00 0.00 39 1005.8
20260504215516 62 0 11.0 17.0 0.00 0.00 0.00 44 1005.9
20260504214516 63 0 13.0 17.0 0.00 0.00 0.00 43 1005.6
20260504213516 63 338 18.0 26.0 0.00 0.00 0.00 42 1006.2
20260504212515 64 338 19.0 27.0 0.00 0.00 0.00 39 1006.3
20260504211515 64 0 18.0 24.0 0.00 0.00 0.00 37 1006.6
20260504210536 62 338 14.0 24.0 0.00 0.00 0.00 45 1006.6
20260504205556 62 338 14.0 22.0 0.00 0.00 0.00 41 1006.3
20260504204535 66 338 12.0 17.0 0.00 0.00 0.00 34 1007.2
20260504203535 69 225 2.0 6.0 0.00 0.00 0.00 29 1007.6
20260504202616 68 135 3.0 6.0 0.00 0.00 0.00 28 1006.9
20260504201516 68 180 3.0 11.0 0.00 0.00 0.00 28 1006.8
20260504200515 69 135 2.0 9.0 0.00 0.00 0.00 26 1007.4
20260504195515 70 338 7.0 14.0 0.00 0.00 0.00 26 1007.4
20260504194515 71 338 13.0 17.0 0.00 0.00 0.00 23 1007.4
20260504193515 73 293 7.0 19.0 0.00 0.00 0.00 24 1007.9
20260504192536 74 270 3.0 5.0 0.00 0.00 0.00 18 1007.5
20260504191535 73 293 4.0 7.0 0.00 0.00 0.00 20 1007.5
20260504190515 72 293 6.0 10.0 0.00 0.00 0.00 17 1007.1
20260504185515 72 270 4.0 7.0 0.00 0.00 0.00 19 1007.1
20260504184515 72 270 5.0 11.0 0.00 0.00 0.00 21 1007.6
20260504183515 73 293 6.0 10.0 0.00 0.00 0.00 20 1007.8
20260504182515 72 293 5.0 10.0 0.00 0.00 0.00 22 1007.9
20260504181515 72 270 5.0 11.0 0.00 0.00 0.00 23 1008.2
20260504180515 72 293 6.0 12.0 0.00 0.00 0.00 23 1008.3
20260504175555 71 270 5.0 9.0 0.00 0.00 0.00 23 1008.5
20260504174515 71 293 6.0 15.0 0.00 0.00 0.00 26 1009.1
20260504173515 70 270 6.0 12.0 0.00 0.00 0.00 26 1009.2
20260504172516 69 270 6.0 9.0 0.00 0.00 0.00 26 1008.9
20260504171515 69 270 5.0 10.0 0.00 0.00 0.00 28 1009.5
20260504170516 68 270 6.0 14.0 0.00 0.00 0.00 27 1009.5
20260504150515 61 225 3.0 7.0 0.00 0.00 0.00 32 1009.2
20260504140515 55 225 2.0 5.0 0.00 0.00 0.00 35 1008.9
20260504130515 47 0.0 2.0 0.00 0.00 0.00 52 1007.4
20260504110517 45 0.0 0.0 0.00 0.00 0.00 50 1007.3
20260504100517 47 0.0 0.0 0.00 0.00 0.00 45 1008.6
20260504081517 53 0.0 2.0 0.00 0.00 0.00 35 1010.0
20260504080517 53 270 1.0 2.0 0.00 0.00 0.00 36 1010.0
20260504050516 60 270 3.0 9.0 0.00 0.00 0.00 29 1011.1
20260504045516 60 293 6.0 10.0 0.00 0.00 0.00 30 1011.1
20260504044516 61 225 3.0 6.0 0.00 0.00 0.00 30 1010.7
20260504043516 61 225 2.0 5.0 0.00 0.00 0.00 29 1010.7
20260504042516 62 225 2.0 4.0 0.00 0.00 0.00 29 1010.8
20260504041516 62 225 1.0 2.0 0.00 0.00 0.00 29 1010.9
20260504040516 63 225 2.0 4.0 0.00 0.00 0.00 28 1011.0
20260504035536 63 225 3.0 6.0 0.00 0.00 0.00 28 1011.0